Radiation Dose at Monitoring Post of Fukushima Daini Nuclear Power Station
Date,Time,MP-1(microSv/h),MP-2(microSv/h),MP-3(microSv/h),MP-4(microSv/h),MP-5(microSv/h),MP-6(microSv/h),MP-7(microSv/h),Wind Direction,Wind Velocity(m/s),Rain
2017/08/30,00:00,0.355,0.217,0.356,0.337,0.323,0.175,0.107,southwest,3.7,No
2017/08/30,00:10,0.355,0.217,0.357,0.335,0.324,0.175,0.107,south-southwest,1.9,No
2017/08/30,00:20,0.353,0.219,0.362,0.332,0.322,0.178,0.106,west-southwest,1.6,No
2017/08/30,00:30,0.356,0.221,0.360,0.337,0.319,0.176,0.106,west-southwest,0.7,No
2017/08/30,00:40,0.357,0.217,0.357,0.338,0.322,0.176,0.106,north,1.9,No
2017/08/30,00:50,0.354,0.217,0.357,0.335,0.324,0.176,0.108,north,1.3,No
2017/08/30,01:00,0.352,0.219,0.363,0.333,0.324,0.178,0.108,north-northeast,1.4,No
2017/08/30,01:10,0.357,0.218,0.360,0.338,0.320,0.177,0.107,north,2.4,No
2017/08/30,01:20,0.356,0.217,0.355,0.338,0.319,0.177,0.106,north-northeast,3.3,No
2017/08/30,01:30,0.354,0.216,0.355,0.334,0.323,0.176,0.107,north,3.8,No
2017/08/30,01:40,0.351,0.218,0.360,0.334,0.323,0.178,0.106,north,3.7,No
2017/08/30,01:50,0.357,0.218,0.360,0.332,0.320,0.176,0.106,north-northeast,3.0,No
2017/08/30,02:00,0.356,0.215,0.358,0.336,0.318,0.175,0.105,north-northeast,3.9,No
2017/08/30,02:10,0.351,0.218,0.355,0.335,0.324,0.176,0.107,north,5.1,No
2017/08/30,02:20,0.352,0.219,0.361,0.333,0.324,0.176,0.107,north-northeast,4.8,No
2017/08/30,02:30,0.357,0.217,0.360,0.332,0.320,0.176,0.105,north-northeast,5.5,No
2017/08/30,02:40,0.355,0.216,0.356,0.337,0.318,0.175,0.104,north-northeast,5.8,No
2017/08/30,02:50,0.352,0.217,0.355,0.335,0.320,0.174,0.105,north-northeast,7.6,Yes
2017/08/30,03:00,0.353,0.217,0.362,0.331,0.322,0.176,0.106,north,8.0,No
2017/08/30,03:10,0.357,0.217,0.359,0.333,0.320,0.176,0.104,north,5.6,No
2017/08/30,03:20,0.355,0.216,0.355,0.337,0.317,0.176,0.106,north,7.6,No
2017/08/30,03:30,0.350,0.218,0.357,0.334,0.322,0.174,0.106,north,7.6,No
2017/08/30,03:40,0.356,0.217,0.361,0.331,0.321,0.175,0.106,north,6.7,No
2017/08/30,03:50,0.356,0.215,0.358,0.335,0.319,0.176,0.105,north,6.4,No
2017/08/30,04:00,0.353,0.218,0.355,0.335,0.321,0.175,0.107,north,7.1,No
2017/08/30,04:10,0.353,0.216,0.360,0.333,0.322,0.175,0.106,north,7.5,No
2017/08/30,04:20,0.355,0.215,0.359,0.331,0.319,0.175,0.105,north,6.4,No
2017/08/30,04:30,0.354,0.218,0.355,0.337,0.320,0.175,0.106,north,5.9,No
2017/08/30,04:40,0.352,0.216,0.359,0.335,0.324,0.174,0.106,north,5.2,No
2017/08/30,04:50,0.356,0.215,0.358,0.331,0.320,0.175,0.106,north,6.1,No
2017/08/30,05:00,0.355,0.217,0.356,0.336,0.319,0.176,0.105,north,7.5,No
2017/08/30,05:10,0.351,0.218,0.356,0.336,0.323,0.175,0.106,north,6.3,No
2017/08/30,05:20,0.355,0.217,0.361,0.333,0.321,0.174,0.106,north,5.3,No
2017/08/30,05:30,0.355,0.218,0.360,0.331,0.318,0.175,0.105,north,6.4,No
2017/08/30,05:40,0.353,0.219,0.355,0.337,0.324,0.175,0.106,north,5.8,No
2017/08/30,05:50,0.353,0.216,0.361,0.333,0.322,0.174,0.106,north,3.9,No
2017/08/30,06:00,0.358,0.217,0.359,0.331,0.319,0.175,0.105,north,5.8,No
2017/08/30,06:10,0.354,0.218,0.356,0.336,0.321,0.176,0.106,north,5.3,No
2017/08/30,06:20,0.352,0.217,0.359,0.336,0.321,0.175,0.106,north,4.8,No
2017/08/30,06:30,0.356,0.216,0.359,0.333,0.319,0.175,0.105,north,2.8,Yes
2017/08/30,06:40,0.354,0.219,0.356,0.335,0.320,0.176,0.106,north,3.6,No
2017/08/30,06:50,0.351,0.216,0.359,0.336,0.322,0.175,0.106,north,4.5,No
2017/08/30,07:00,0.355,0.215,0.359,0.334,0.321,0.176,0.105,north-northeast,4.6,No
2017/08/30,07:10,0.358,0.218,0.357,0.331,0.318,0.176,0.105,north-northeast,7.0,No
2017/08/30,07:20,0.353,0.217,0.355,0.338,0.324,0.175,0.106,north-northeast,7.0,No
2017/08/30,07:30,0.352,0.215,0.360,0.335,0.321,0.174,0.105,north-northeast,4.7,No
2017/08/30,07:40,0.356,0.218,0.359,0.332,0.319,0.176,0.105,north-northeast,5.0,No
2017/08/30,07:50,0.354,0.217,0.355,0.336,0.322,0.176,0.106,north,6.5,Yes
2017/08/30,08:00,0.353,0.217,0.361,0.337,0.324,0.177,0.110,north,5.6,Yes
2017/08/30,08:10,0.359,0.222,0.362,0.335,0.321,0.180,0.114,north,5.6,Yes
2017/08/30,08:20,0.357,0.221,0.359,0.337,0.326,0.183,0.116,north,7.7,Yes
2017/08/30,08:30,0.356,0.222,0.364,0.340,0.326,0.183,0.117,northeast,7.7,Yes
2017/08/30,08:40,0.361,0.225,0.361,0.336,0.327,0.187,0.118,north-northeast,2.2,Yes
2017/08/30,08:50,0.359,0.226,0.362,0.340,0.332,0.190,0.119,north,6.6,Yes
2017/08/30,09:00,0.359,0.229,0.366,0.342,0.331,0.189,0.119,north,7.2,Yes
2017/08/30,09:10,0.365,0.227,0.362,0.338,0.329,0.190,0.117,north-northeast,6.4,Yes
2017/08/30,09:20,0.359,0.226,0.362,0.341,0.331,0.188,0.116,north-northeast,7.9,Yes
2017/08/30,09:30,0.358,0.227,0.363,0.338,0.325,0.184,0.114,north-northeast,7.1,No
2017/08/30,09:40,0.360,0.222,0.358,0.334,0.328,0.184,0.111,north-northeast,7.8,No
2017/08/30,09:50,0.353,0.220,0.360,0.336,0.325,0.181,0.110,north-northeast,7.6,Yes
2017/08/30,10:00,0.356,0.222,0.359,0.333,0.320,0.178,0.109,north-northeast,7.0,Yes
2017/08/30,10:10,0.357,0.219,0.356,0.331,0.322,0.179,0.108,north-northeast,8.3,Yes
2017/08/30,10:20,0.352,0.219,0.359,0.335,0.322,0.178,0.108,north-northeast,7.3,Yes
2017/08/30,10:30,0.353,0.219,0.357,0.332,0.319,0.176,0.106,northeast,7.5,Yes
2017/08/30,10:40,0.355,0.218,0.356,0.328,0.323,0.177,0.107,north-northeast,5.7,Yes
2017/08/30,10:50,0.349,0.221,0.361,0.334,0.321,0.178,0.107,-,-,No
2017/08/30,11:00,0.353,0.218,0.355,0.330,0.320,0.175,0.106,-,-,No
2017/08/30,11:10,0.353,0.217,0.357,0.331,0.323,0.177,0.106,-,-,Yes
2017/08/30,11:20,0.351,0.219,0.358,0.333,0.320,0.176,0.106,-,-,Yes
2017/08/30,11:30,0.356,0.217,0.356,0.331,0.318,0.176,0.105,-,-,Yes
2017/08/30,11:40,0.353,0.219,0.358,0.331,0.324,0.176,0.106,north-northeast,5.2,No
2017/08/30,11:50,0.350,0.219,0.357,0.331,0.318,0.175,0.106,north-northeast,5.2,No
2017/08/30,12:00,0.353,0.216,0.354,0.327,0.318,0.175,0.105,north,5.3,No
2017/08/30,12:10,0.351,0.217,0.359,0.331,0.320,0.175,0.105,north,5.7,No
2017/08/30,12:20,0.348,0.215,0.355,0.329,0.315,0.174,0.104,north,5.3,No
2017/08/30,12:30,0.352,0.216,0.355,0.327,0.317,0.173,0.104,north,4.8,Yes
2017/08/30,12:40,0.351,0.217,0.359,0.334,0.319,0.174,0.107,north,4.0,Yes
2017/08/30,12:50,0.352,0.221,0.356,0.332,0.319,0.178,0.108,north,5.6,Yes
2017/08/30,13:00,0.356,0.225,0.361,0.332,0.326,0.178,0.109,north,5.2,Yes
2017/08/30,13:10,0.354,0.225,0.358,0.335,0.323,0.179,0.111,north,5.3,Yes
2017/08/30,13:20,0.356,0.224,0.358,0.331,0.321,0.180,0.110,north,6.4,Yes
2017/08/30,13:30,0.354,0.224,0.359,0.333,0.325,0.178,0.110,north,6.7,Yes
2017/08/30,13:40,0.352,0.219,0.354,0.333,0.319,0.177,0.108,north,6.7,No
2017/08/30,13:50,0.352,0.222,0.356,0.328,0.320,0.175,0.106,north-northwest,5.3,Yes
2017/08/30,14:00,0.349,0.218,0.353,0.329,0.319,0.175,0.107,north-northwest,5.3,Yes
2017/08/30,14:10,0.350,0.217,0.352,0.329,0.318,0.175,0.105,north-northwest,6.1,Yes
2017/08/30,14:20,0.350,0.216,0.354,0.326,0.320,0.173,0.105,north,5.9,Yes
2017/08/30,14:30,0.348,0.216,0.349,0.328,0.317,0.174,0.106,northwest,3.3,Yes
2017/08/30,14:40,0.352,0.219,0.354,0.326,0.317,0.174,0.107,north,3.7,Yes
2017/08/30,14:50,0.348,0.218,0.350,0.327,0.321,0.174,0.108,north,5.3,Yes
2017/08/30,15:00,0.351,0.218,0.351,0.328,0.316,0.176,0.109,north,5.9,No
2017/08/30,15:10,0.351,0.218,0.352,0.325,0.320,0.174,0.106,north,5.9,No
2017/08/30,15:20,0.347,0.215,0.348,0.327,0.320,0.172,0.106,north,5.4,No
2017/08/30,15:30,0.349,0.216,0.349,0.325,0.316,0.172,0.105,north,6.2,No
2017/08/30,15:40,0.347,0.214,0.349,0.323,0.318,0.171,0.104,north,3.8,Yes
2017/08/30,15:50,0.346,0.213,0.347,0.325,0.317,0.172,0.105,north,6.2,Yes
2017/08/30,16:00,0.348,0.214,0.349,0.322,0.314,0.172,0.104,north,5.9,Yes
2017/08/30,16:10,0.345,0.212,0.347,0.323,0.318,0.171,0.105,north,5.9,Yes
2017/08/30,16:20,0.346,0.213,0.347,0.325,0.313,0.171,0.105,north,6.3,Yes
2017/08/30,16:30,0.346,0.211,0.347,0.320,0.317,0.172,0.103,north,5.0,Yes
2017/08/30,16:40,0.343,0.211,0.345,0.324,0.316,0.171,0.104,north,5.4,No
2017/08/30,16:50,0.347,0.212,0.348,0.322,0.314,0.170,0.104,north,6.3,No
2017/08/30,17:00,0.345,0.209,0.346,0.322,0.317,0.170,0.104,north,6.1,Yes
2017/08/30,17:10,0.346,0.213,0.347,0.326,0.313,0.170,0.105,north-northeast,7.8,Yes
2017/08/30,17:20,0.347,0.212,0.349,0.323,0.317,0.171,0.102,north,5.5,No
2017/08/30,17:30,0.344,0.213,0.347,0.323,0.316,0.170,0.104,north,6.7,No
2017/08/30,17:40,0.348,0.212,0.349,0.323,0.314,0.171,0.104,north,5.9,Yes
2017/08/30,17:50,0.346,0.212,0.346,0.324,0.317,0.172,0.103,north,6.7,No
2017/08/30,18:00,0.345,0.213,0.348,0.326,0.314,0.170,0.103,north,7.3,Yes
2017/08/30,18:10,0.348,0.211,0.348,0.322,0.317,0.171,0.102,north,6.2,Yes
2017/08/30,18:20,0.344,0.213,0.346,0.324,0.316,0.170,0.103,north,6.1,No
2017/08/30,18:30,0.348,0.212,0.349,0.323,0.314,0.171,0.102,north,7.1,No
2017/08/30,18:40,0.344,0.212,0.346,0.322,0.317,0.171,0.103,north,5.8,No
2017/08/30,18:50,0.346,0.211,0.348,0.325,0.312,0.169,0.102,north,7.0,No
2017/08/30,19:00,0.347,0.211,0.345,0.321,0.317,0.169,0.102,north,5.4,No
2017/08/30,19:10,0.344,0.212,0.347,0.323,0.313,0.170,0.102,north,5.6,No
2017/08/30,19:20,0.346,0.210,0.347,0.323,0.315,0.168,0.102,north,4.6,No
2017/08/30,19:30,0.344,0.212,0.345,0.321,0.315,0.169,0.102,north,5.4,No
2017/08/30,19:40,0.344,0.209,0.348,0.323,0.312,0.168,0.101,north,5.4,No
2017/08/30,19:50,0.347,0.212,0.345,0.321,0.316,0.169,0.100,north,5.6,Yes
2017/08/30,20:00,0.345,0.211,0.347,0.323,0.313,0.170,0.103,north-northwest,2.6,Yes
2017/08/30,20:10,0.347,0.212,0.348,0.324,0.315,0.171,0.103,north,4.6,Yes
2017/08/30,20:20,0.346,0.214,0.348,0.322,0.317,0.172,0.105,north-northwest,3.4,Yes
2017/08/30,20:30,0.346,0.212,0.350,0.326,0.314,0.172,0.103,north-northwest,3.9,Yes
2017/08/30,20:40,0.347,0.213,0.346,0.322,0.318,0.171,0.105,north,4.0,Yes
2017/08/30,20:50,0.343,0.212,0.349,0.322,0.315,0.172,0.104,north-northwest,4.5,Yes
2017/08/30,21:00,0.348,0.212,0.346,0.323,0.316,0.170,0.104,north-northwest,4.9,No
2017/08/30,21:10,0.343,0.211,0.349,0.322,0.316,0.172,0.103,north,4.0,No
2017/08/30,21:20,0.345,0.212,0.345,0.324,0.312,0.170,0.103,north,3.2,No
2017/08/30,21:30,0.346,0.212,0.346,0.321,0.317,0.169,0.101,north,1.9,No
2017/08/30,21:40,0.341,0.210,0.346,0.322,0.314,0.170,0.102,north,5.1,Yes
2017/08/30,21:50,0.346,0.211,0.343,0.322,0.314,0.169,0.101,north,5.0,Yes
2017/08/30,22:00,0.343,0.210,0.349,0.321,0.315,0.169,0.102,north,4.5,Yes
2017/08/30,22:10,0.343,0.212,0.343,0.325,0.312,0.170,0.104,north-northeast,5.9,Yes
2017/08/30,22:20,0.347,0.213,0.347,0.321,0.316,0.170,0.104,-,CALM,Yes
2017/08/30,22:30,0.342,0.213,0.346,0.323,0.314,0.171,0.105,north-northwest,0.9,Yes
2017/08/30,22:40,0.347,0.213,0.346,0.322,0.316,0.171,0.106,north,3.6,Yes
2017/08/30,22:50,0.345,0.213,0.346,0.320,0.317,0.171,0.106,north,3.2,No
2017/08/30,23:00,0.343,0.214,0.344,0.325,0.313,0.171,0.104,north-northwest,3.4,Yes
2017/08/30,23:10,0.347,0.213,0.347,0.319,0.317,0.170,0.104,north-northwest,4.1,Yes
2017/08/30,23:20,0.342,0.212,0.345,0.323,0.315,0.171,0.105,north-northwest,4.7,No
2017/08/30,23:30,0.346,0.212,0.346,0.323,0.316,0.171,0.103,north-northwest,5.3,No
2017/08/30,23:40,0.344,0.212,0.344,0.322,0.316,0.169,0.103,north-northwest,5.0,Yes
2017/08/30,23:50,0.345,0.213,0.344,0.323,0.312,0.171,0.103,north-northwest,5.6,Yes
